Terug naar catalogus

USA 463

ActiefMilitairVLEO
NORAD 62532·PAYLOAD·🇺🇸 United States

Gelanceerd Jan 10, 2025 vanaf Vandenberg Space Force Base

Loading…

Volgende Passages (komende 24 uur)

TLE

VerouderdSource: Mike McCants

Epoch: Aug 26, 2026, 02:13 UTC

1 62532U 25005A   26238.09303877 0.00000000  00000-0  00000-0 0    01
2 62532  70.0250 226.5361 0003000 202.8662 157.1338 14.96713500    02

Volg USA 463 in realtime met AllMySat

Download on the App Store